Flag for Portugal Weather past 2 weeks in Setúbal, Portugal

Now
66 °F

Passing clouds.


Feels Like: 66 °F
Forecast: 60 / 81 °F
Wind: 9 mph from Northwest

Location: Lisbon Portela Airport

Current Time: Aug 4, 2015 at 9:20:25 PM

Latest Report: Aug 4, 2015 at 9:00 PM


Visibility: N/A

Pressure: 30.01 "Hg

Humidity: 68%

Dew point: 55 °F

Location of SetúbalLocation

Historic Weather in Setúbal — Graph

°F

Setúbal temperature yesterday

Maximum temperature yesterday: 86 °F (at 2:30 PM)
Minimum temperature yesterday: 64 °F (at 2:30 AM)
Average temperature yesterday: 73 °F

Past Weeks' High & Low Weather Summary

 TemperatureHumidityPressure
High88 °F (Aug 2, 2:00 PM)94% (Jul 24, 7:30 AM)30.12 "Hg (Jul 24, 7:30 AM)
Low61 °F (Jul 25, 6:00 AM)31% (Aug 2, 8:30 PM)29.83 "Hg (Jul 31, 2:30 AM)
Average72 °F67%30.00 "Hg
* Reported Jul 20 8:00 PM — Aug 4 8:00 PM, Setúbal, Weather by CustomWeather, © 2015

Note: Actual official high and low records may vary slightly from our data, if they occured in-between our weather recording intervals... More about our weather records

Advertising

Setúbal weather history for previous 24 hours

 ConditionsComfort  
Time TempWeatherWind HumidityBarometerVisibility
8:00 PM
Tue, Aug 4
70 °FSunny.12 mph60%30.01 "Hg10 mi
7:30 PM72 °FPassing clouds.12 mph57%30.01 "HgN/A
7:00 PM73 °FPassing clouds.10 mph50%30.01 "HgN/A
6:30 PM73 °FPassing clouds.14 mph50%30.01 "HgN/A
6:00 PM75 °FPassing clouds.13 mph50%30.01 "HgN/A
5:30 PM77 °FPassing clouds.10 mph44%30.01 "HgN/A
5:00 PM77 °FPassing clouds.14 mph44%30.01 "HgN/A
4:30 PM77 °FPassing clouds.13 mph44%30.01 "HgN/A
4:00 PM77 °FPassing clouds.12 mph44%30.04 "HgN/A
3:30 PM77 °FPassing clouds.15 mph47%30.04 "HgN/A
3:00 PM77 °FPassing clouds.13 mph47%30.04 "HgN/A
2:30 PM77 °FPassing clouds.12 mph47%30.04 "HgN/A
2:00 PM77 °FPassing clouds.8 mph47%30.04 "HgN/A
1:30 PM79 °FPassing clouds.9 mph45%30.04 "HgN/A
1:00 PM77 °FPassing clouds.7 mph47%30.07 "HgN/A
12:30 PM77 °FPassing clouds.7 mph47%30.07 "HgN/A
12:00 PM75 °FPassing clouds.9 mph54%30.07 "HgN/A
11:30 AM73 °FPassing clouds.9 mph57%30.07 "HgN/A
11:00 AM73 °FPassing clouds.7 mph57%30.07 "HgN/A
10:30 AM70 °FPassing clouds.10 mph64%30.07 "HgN/A
10:00 AM68 °FPassing clouds.12 mph69%30.07 "HgN/A
9:30 AM68 °FPassing clouds.12 mph73%30.07 "HgN/A
9:00 AM66 °FPassing clouds.12 mph78%30.07 "HgN/A
8:30 AM64 °FPassing clouds.12 mph78%30.07 "HgN/A
8:00 AM64 °FPassing clouds.12 mph78%30.07 "HgN/A
7:30 AM63 °FPassing clouds.12 mph83%30.07 "HgN/A
7:00 AM63 °FPassing clouds.8 mph83%30.07 "HgN/A
6:30 AM63 °FPassing clouds.8 mph83%30.07 "HgN/A
6:00 AM63 °FPassing clouds.9 mph88%30.07 "HgN/A
5:30 AM63 °FPassing clouds.12 mph88%30.07 "HgN/A
5:00 AM64 °FPassing clouds.9 mph88%30.07 "HgN/A
4:30 AM64 °FPassing clouds.8 mph88%30.07 "HgN/A
4:00 AM64 °FPassing clouds.8 mph88%30.07 "HgN/A
3:30 AM64 °FPassing clouds.8 mph88%30.07 "HgN/A
3:00 AM64 °FPassing clouds.8 mph88%30.07 "HgN/A
2:30 AM66 °FPassing clouds.8 mph83%30.07 "HgN/A
2:00 AM66 °FClear.7 mph83%30.07 "Hg10 mi
1:30 AM68 °FPassing clouds.5 mph83%30.07 "HgN/A
1:00 AM68 °FPassing clouds.8 mph83%30.07 "HgN/A
12:30 AM68 °FPassing clouds.7 mph83%30.07 "HgN/A
12:00 AM70 °FPassing clouds.12 mph78%30.07 "HgN/A
11:30 PM
Mon, Aug 3
72 °FPassing clouds.12 mph78%30.07 "HgN/A
11:00 PM70 °FPassing clouds.12 mph83%30.07 "HgN/A
10:30 PM72 °FPassing clouds.14 mph78%30.07 "HgN/A
10:00 PM72 °FPassing clouds.14 mph78%30.04 "HgN/A
9:30 PM72 °FScattered clouds.10 mph78%30.04 "HgN/A
9:00 PM72 °FPassing clouds.12 mph78%30.04 "HgN/A
Weather by CustomWeather, © 2015

See weather overviewHow to use our weather pages